EHI
3 3 2 1 1 0 0 1 1 1 2 2 2 3 4 4 4 5 4 4 4 4 5 4 2 1 0 0 0 1 2 2 3 3 3 3 2 1 0 0 0 0 0
3 3 2 1 0 0 0 1 2 2 2 2 3 3 3 3 4 5 5 4 4 4 3 3 2 1 1 1 0 0 1 1 2 2 2 1 1 0 0 0 0 0 0
2 2 1 1 0 0 1 3 5 4 3 4 3 2 2 2 3 4 5 5 4 3 2 1 1 1 1 2 1 0 0 0 1 1 0 0 0 0 0 1 1 1 1
1 0 1 1 1 0 1 3 6 5 3 3 2 0 0 1 1 2 3 3 3 3 2 2 1 1 2 2 1 0 0 0 0 0 0 0 0 0 1 2 2 1 1
0 0 0 1 2 1 1 2 3 3 2 1 0 0 0 0 0 0 1 1 2 2 2 2 2 2 2 2 1 0 0 0 0 0 0 0 0 1 2 3 3 2 2
0 0 0 1 1 1 1 1 1 1 0 0 0 0 0 0 0 0 0 0 1 1 1 1 1 1 2 3 2 1 0 0 0 0 0 0 0 1 2 3 3 2 2
0 0 0 0 0 0 1 1 0 0 0 0 0 0 0 0 0 0 0 0 0 0 0 0 0 0 1 3 3 2 0 0 0 0 0 0 0 0 1 1 2 1 1
0 0 0 0 0 0 0 0 0 0 0 0 0 0 0 0 0 0 0 0 0 0 0 0 0 0 1 2 2 1 0 0 0 0 0 0 0 0 0 0 0 0 0
0 0 0 0 0 0 0 0 0 0 0 0 0 0 0 0 0 0 0 0 0 0 0 0 0 0 0 1 1 0 0 0 0 0 0 0 0 0 0 0 0 0 0
0 0 0 0 0 0 0 0 0 0 0 0 0 0 0 0 0 0 0 0 0 0 0 0 0 0 0 0 0 0 0 0 0 0 0 0 0 0 0 0 0 0 0
0 0 0 0 0 0 0 0 0 0 0 0 0 0 0 0 0 0 0 0 0 0 0 0 0 0 0 0 0 0 0 0 0 0 0 0 0 0 0 0 0 0 0
0 0 0 0 0 0 0 0 0 0 0 0 0 0 0 0 0 0 0 0 0 0 0 0 0 0 0 0 0 0 0 0 0 0 0 0 0 0 0 0 0 0 0
0 0 0 0 0 0 0 0 0 0 0 0 0 0 0 0 0 0 0 0 0 0 0 0 0 0 0 0 0 0 0 0 0 0 0 0 0 0 0 0 0 0 0
0 0 0 0 0 0 0 0 0 0 0 0 0 0 0 0 0 0 0 0 0 0 0 0 0 0 0 0 0 0 0 0 0 0 0 0 0 0 0 0 0 0 0
0 0 0 0 0 0 0 0 0 0 0 0 0 0 0 0 0 0 0 0 0 0 0 0 0 0 0 0 0 0 0 0 0 0 0 0 0 0 0 0 0 0 0
0 0 0 0 0 0 0 0 0 0 0 0 0 0 0 0 0 0 0 0 0 0 0 0 0 0 0 0 0 0 0 0 0 0 0 0 1 0 0 0 0 0 0
0 0 0 0 0 0 0 0 0 0 0 0 0 0 0 0 0 0 0 0 0 0 0 0 0 0 0 0 0 0 0 0 0 0 0 0 0 0 0 0 0 0 0
0 0 0 0 0 0 0 0 0 0 0 0 0 0 0 0 0 0 0 0 0 0 0 0 0 0 0 0 0 0 0 0 0 0 0 0 0 0 0 0 0 0 1
0 0 0 0 0 0 0 0 0 0 0 0 0 0 0 0 0 0 0 0 0 0 0 0 0 0 0 0 0 0 0 0 0 0 0 0 0 0 0 0 0 0 1
0 0 0 0 0 0 0 0 0 0 0 0 0 0 0 0 0 0 0 0 0 0 0 0 0 0 0 0 0 0 0 0 0 0 0 0 0 0 0 0 0 0 1
0 0 0 0 0 0 0 0 0 0 0 0 0 0 0 0 0 0 0 0 0 0 0 0 0 0 0 0 0 0 0 0 0 0 0 0 0 0 0 0 0 0 0
0 0 0 0 0 0 0 0 0 0 0 0 0 0 0 0 0 0 0 0 0 0 0 0 0 0 0 0 0 0 0 0 0 0 0 0 0 0 0 0 0 0 0
0 0 0 0 0 0 0 0 0 0 0 0 0 0 0 0 0 0 0 0 0 0 0 0 0 0 0 0 0 0 0 0 0 0 0 0 0 0 0 0 0 0 0
0 0 0 0 0 0 0 0 0 0 0 0 0 0 0 0 0 0 0 0 0 0 0 0 0 0 0 0 0 0 0 0 0 0 0 0 0 0 0 0 0 0 0
0 0 0 0 0 0 0 0 0 0 0 0 0 0 0 0 0 0 0 0 0 0 0 0 0 0 0 0 0 0 0 0 0 0 0 0 0 0 0 0 0 0 0
0 0 0 0 1 1 1 0 0 0 0 0 0 0 0 0 0 0 0 0 0 0 0 0 0 0 0 0 0 0 0 0 0 0 0 0 0 0 0 0 0 0 0
Wind_Speed
4 5 7 7 9 10 11 11 11 11 11 11 10 10 10 10 10 10 10 10 10 9 9 9 8 8 8 8 8 7 7 7 6 6 6 6 6 6 6 6 4 4 7
5 7 9 8 10 11 11 12 12 12 11 11 11 10 10 10 10 10 10 10 10 9 9 8 8 7 8 7 7 7 7 7 6 6 4 5 6 6 7 7 8 6 6
6 7 9 9 10 11 11 11 12 11 11 11 11 11 10 10 10 10 9 9 9 8 8 7 7 7 7 7 6 6 6 6 6 3 1 3 7 8 7 8 8 8 6
8 7 9 10 11 11 11 11 12 12 11 11 11 11 10 10 9 9 9 8 8 8 8 8 7 7 7 7 6 6 6 6 5 3 1 5 5 9 8 8 8 7 7
9 8 10 10 11 11 11 11 12 12 11 11 10 10 10 9 9 8 8 8 8 8 8 8 7 7 7 7 7 6 6 5 2 2 5 5 5 8 8 8 8 8 7
9 9 11 10 11 11 11 11 11 11 10 10 10 10 9 9 9 8 8 7 7 8 8 8 8 7 7 7 7 6 6 3 1 4 4 4 6 8 8 8 8 8 8
9 9 11 10 11 11 10 10 10 10 10 9 9 9 9 8 8 8 7 7 7 7 7 7 7 7 7 7 6 6 5 2 2 4 4 5 7 8 8 8 8 8 7
9 9 10 11 11 10 10 10 9 9 9 9 9 8 8 8 8 8 8 7 7 7 7 7 7 7 7 7 7 6 5 4 3 4 4 5 8 7 7 7 7 7 7
8 8 7 9 10 10 9 9 9 9 9 8 8 8 8 8 7 7 7 7 7 7 7 7 7 7 7 7 7 6 5 4 2 3 4 5 7 6 6 7 6 7 7
7 7 7 7 7 7 8 9 8 8 8 8 8 7 5 4 5 4 5 8 8 8 7 7 7 7 7 7 6 6 2 3 3 4 4 6 7 6 6 6 6 6 6
6 6 6 6 6 5 6 6 6 6 5 3 5 4 1 4 5 4 10 8 8 7 7 7 6 5 3 5 5 2 2 2 4 4 5 8 7 6 6 6 6 7 7
7 7 6 6 5 5 4 4 3 4 4 4 5 5 4 5 4 4 7 6 6 5 5 5 2 1 2 3 4 2 1 3 3 3 6 8 7 7 7 7 7 7 7
7 6 6 5 5 5 4 4 3 3 3 4 6 5 4 4 3 3 2 3 3 1 3 2 1 2 3 3 2 3 4 3 2 3 7 8 8 8 7 8 7 7 7
7 6 6 5 5 5 5 4 3 3 3 4 5 6 4 3 3 4 3 4 3 2 3 2 2 4 4 4 3 4 4 3 3 3 6 9 9 8 8 8 8 8 8
6 6 5 4 5 5 5 3 4 4 4 5 4 4 5 4 4 3 3 3 3 3 2 2 3 4 4 4 4 5 5 4 4 4 5 9 9 9 8 8 9 8 8
7 6 5 4 5 4 4 4 4 4 3 4 4 5 6 4 4 3 4 4 4 3 3 2 4 3 3 3 4 5 4 4 4 4 4 6 8 9 10 10 10 10 9
7 6 6 4 4 4 5 5 4 3 4 4 4 5 6 5 5 4 4 4 4 3 3 3 4 3 3 3 4 5 5 5 4 5 5 3 4 8 9 10 11 11 11
6 6 6 4 4 5 4 4 3 4 4 4 4 4 6 6 6 4 4 4 4 3 3 3 3 3 3 3 4 4 4 4 5 5 4 4 4 4 7 9 10 11 11
6 6 6 5 5 5 5 4 4 4 4 4 4 4 5 6 6 5 4 4 4 3 3 3 3 3 4 4 3 4 4 4 5 5 6 6 6 5 4 5 6 10 11
6 6 6 6 5 6 4 4 3 3 3 3 4 4 5 5 6 5 4 4 4 3 3 3 4 3 3 3 3 4 4 4 4 5 5 6 6 7 6 6 4 5 9
7 7 7 7 7 5 4 3 3 3 2 3 3 5 4 5 5 5 4 5 4 4 4 4 3 3 3 2 2 3 4 5 5 4 5 5 6 7 6 6 5 5 3
8 7 8 7 6 6 3 2 2 3 2 3 2 3 4 4 5 4 5 4 4 3 4 4 3 2 2 2 1 0 2 3 3 4 4 5 6 5 6 7 7 6 5
9 9 7 7 7 6 6 3 3 3 3 3 3 2 3 4 4 4 5 4 4 4 4 4 3 2 2 2 3 3 2 2 2 3 5 4 5 5 5 6 7 7 7
10 9 9 8 7 7 7 5 5 3 2 2 2 2 2 3 3 3 4 4 4 4 4 3 3 2 2 1 2 3 4 3 2 1 2 3 5 5 6 5 6 7 7
10 9 8 8 7 6 6 5 5 3 2 3 3 3 2 3 3 3 3 3 3 3 4 4 3 3 2 2 2 2 2 1 3 2 1 1 2 4 5 5 5 6 6
9 9 8 8 8 7 7 7 6 4 4 4 3 3 2 2 2 2 2 2 2 3 3 3 3 4 3 3 2 2 2 2 2 2 2 1 2 2 3 4 4 5 5
Wind_Direction
72 71 75 83 89 90 89 89 89 90 88 86 83 81 79 78 78 77 75 70 64 60 58 56 57 57 56 57 57 59 61 63 63 64 64 62 57 53 51 38 8 75 70
87 83 84 82 88 89 86 84 84 86 85 83 80 77 76 75 76 75 73 70 66 59 57 54 53 55 56 54 52 55 57 60 61 62 63 95 74 55 51 43 26 46 57
94 91 93 84 87 87 85 84 82 84 85 81 79 75 73 70 71 71 71 68 65 61 58 55 52 54 56 55 54 54 56 59 56 51 297 78 85 64 51 47 48 49 50
95 90 84 86 87 87 87 85 83 83 83 79 76 72 71 70 70 69 67 64 62 60 58 55 52 53 54 52 55 57 60 62 50 325 48 60 66 64 50 48 47 47 47
95 90 87 86 87 88 87 85 84 82 81 78 75 72 70 69 68 66 64 62 60 57 54 51 50 51 51 51 54 57 63 67 49 352 54 58 62 58 49 48 45 45 45
100 95 91 87 88 87 85 82 81 80 78 75 72 69 66 64 62 61 59 60 58 56 53 50 50 53 50 50 53 58 63 51 263 64 57 56 64 62 51 49 46 44 41
103 99 96 88 87 84 82 79 77 75 72 70 67 63 59 56 55 55 53 52 53 52 50 48 49 51 51 50 54 57 59 6 39 71 66 64 63 56 51 49 45 40 39
104 103 103 96 87 82 78 76 74 72 70 67 64 60 55 51 49 49 49 50 52 54 52 48 47 50 53 53 56 59 50 331 86 70 68 69 61 52 50 47 41 38 36
107 105 105 110 107 98 81 70 68 66 65 63 59 56 53 49 45 42 46 48 53 56 52 50 49 51 54 55 56 56 53 353 30 58 68 66 61 52 50 44 36 34 32
111 109 106 102 99 100 98 78 68 65 61 61 60 54 53 83 79 56 61 53 50 53 51 48 47 52 55 57 55 50 29 258 55 65 55 66 55 53 51 43 35 32 29
111 109 107 104 98 90 86 91 94 90 71 83 90 76 6 50 60 76 53 48 46 48 50 48 46 48 64 93 73 41 276 41 69 54 55 51 47 51 48 41 35 30 26
121 111 107 106 100 92 83 87 74 75 67 51 46 48 41 51 47 43 93 67 58 56 74 55 36 169 258 94 111 219 53 58 60 61 64 47 48 49 42 37 32 28 25
121 116 112 107 98 89 88 79 68 66 64 58 47 50 39 46 59 48 60 95 82 60 64 86 188 50 54 55 40 54 42 36 51 56 63 47 46 45 40 36 31 26 21
125 119 114 107 102 94 87 83 78 72 59 55 43 38 36 38 37 45 41 41 44 53 43 40 38 52 50 60 53 53 59 44 49 60 66 50 44 40 36 33 31 24 18
134 130 115 108 95 92 84 81 82 70 53 62 43 32 38 35 42 48 51 43 42 43 53 42 46 51 44 47 46 46 48 46 46 59 75 62 46 38 34 30 28 22 15
144 134 129 125 110 104 102 93 80 76 75 59 49 41 39 43 42 40 55 50 42 36 37 45 63 61 55 49 50 49 42 50 47 59 64 82 67 47 36 33 29 23 17
145 141 137 132 121 108 95 86 84 74 68 61 51 41 46 44 42 46 44 50 41 41 47 44 61 55 60 66 65 59 54 44 47 54 53 41 69 75 52 38 32 27 20
156 150 142 146 137 118 109 102 90 76 67 62 55 43 41 43 43 46 44 46 39 39 47 54 43 54 61 56 59 57 61 55 49 49 51 55 42 43 68 51 37 29 24
165 159 154 151 145 132 125 116 97 85 70 62 56 46 36 40 39 50 39 32 41 43 45 53 52 44 62 64 72 65 58 56 49 45 47 43 45 36 44 73 58 40 31
169 164 152 151 154 142 142 129 113 93 83 70 61 53 39 36 38 46 48 39 37 49 51 63 69 59 56 59 72 72 68 72 60 43 41 46 39 37 34 28 35 61 50
176 173 163 166 162 162 156 155 138 114 100 85 68 60 53 45 41 45 38 44 31 47 46 59 71 85 70 50 101 101 94 70 59 55 39 41 47 38 34 33 23 17 43
182 181 176 174 173 172 163 152 128 110 104 87 79 69 53 49 43 41 47 54 52 56 55 54 51 48 67 16 350 280 139 125 73 56 50 40 37 37 32 29 27 24 18
188 187 185 181 175 177 169 156 143 138 151 138 112 80 55 51 50 40 45 48 50 52 57 46 41 33 44 52 16 341 337 41 83 75 46 45 36 28 30 23 24 22 20
190 189 187 182 179 174 175 183 181 179 150 122 108 103 95 70 61 48 54 50 53 53 59 54 49 32 7 35 59 20 11 13 314 104 94 50 34 30 27 20 21 20 20
186 186 188 181 181 178 183 183 196 181 152 137 133 124 110 90 68 57 51 54 55 58 55 52 48 33 32 19 25 34 45 29 325 329 19 27 44 37 26 20 21 19 18
185 183 185 185 182 183 188 189 193 179 171 159 160 149 143 121 102 82 61 67 63 59 61 53 54 56 41 39 21 21 7 10 6 351 332 351 20 36 26 23 17 18 15